DateTimeUTC,F1_A11,F1_S11,BsB_S11,BsG_S11,BsR_S11,BbsB_S11,BbsG_S11,BbsR_S11,BaB_A11,BaG_A11,BaR_A11,Tu_S11,T_S11,Uu_S11,U_S11,P_S11,T1_A11
2021-04-21T04:00:00Z,00000200,21000000,,,,,,,-000.08,-000.01,0000.12,16.1,24.1,,00.0,0656.7,31.0
2021-04-21T04:01:00Z,00000200,21000000,,,,,,,-000.02,-000.07,-000.22,16.1,24.1,,00.0,0656.7,30.9
2021-04-21T04:02:00Z,00000200,21000000,,,,,,,-000.17,-000.04,-000.15,16.1,24.1,,00.0,0656.7,30.9
2021-04-21T04:03:00Z,00000200,61000000,,,,,,,0000.24,-000.11,0000.38,16.1,24.1,,00.0,0656.7,30.9
2021-04-21T04:04:00Z,00000200,41000000,0000.35,0000.25,0000.06,0000.26,0000.42,-000.28,0000.10,0000.19,0000.19,16.1,23.8,,00.0,0657.6,30.9
2021-04-21T04:05:00Z,00000200,01000000,0000.59,0000.55,0000.05,0000.41,0000.41,-000.20,0000.24,0000.28,0000.04,16.0,23.7,,00.0,0657.7,30.9
2021-04-21T04:06:00Z,00000200,01000000,0000.71,0000.39,0000.08,0000.51,0000.34,-000.16,0000.40,0000.48,0000.07,16.0,23.6,,00.0,0657.7,30.9
2021-04-21T04:07:00Z,00000200,01000000,0000.88,0000.16,0000.25,0000.34,0000.17,-000.00,0000.30,0000.16,0000.45,16.0,23.6,,00.0,0657.7,30.9
2021-04-21T04:08:00Z,00000200,01000000,0000.43,0000.37,0000.14,0000.44,0000.17,-000.01,0000.35,0000.46,0000.10,16.1,23.6,,00.0,0657.7,30.9
2021-04-21T04:09:00Z,00000200,01000000,0000.73,0000.43,0000.00,0000.07,0000.15,0000.09,-000.42,0000.07,0000.12,16.2,23.6,,00.0,0657.7,31.0
2021-04-21T04:10:00Z,00000200,01000000,0000.91,0000.65,0000.14,0000.12,0000.16,-000.13,0000.60,0000.16,-000.02,16.2,23.6,,00.0,0657.6,31.0
2021-04-21T04:11:00Z,00000200,01000000,0000.11,0000.42,-000.12,-000.15,0000.09,-000.03,-000.06,-000.10,0000.06,16.3,23.7,,00.0,0657.7,31.0
2021-04-21T04:12:00Z,00000200,01000000,0000.62,0000.29,0000.05,0000.33,0000.01,-000.22,0000.08,0000.13,0000.29,16.3,23.7,,00.0,0657.7,31.0
2021-04-21T04:13:00Z,00000200,01000000,0000.28,0000.07,-000.01,-000.01,-000.06,0000.10,0000.29,0000.22,0000.03,16.4,23.7,,00.0,0657.7,31.0
2021-04-21T04:14:00Z,00000200,01000000,0001.12,0000.42,0000.17,0000.33,-000.08,-000.36,0000.19,0000.30,0000.10,16.5,23.7,,00.0,0657.7,31.0
2021-04-21T04:15:00Z,00000200,01000000,-000.29,0000.09,0000.10,0000.56,0000.31,0000.09,-000.37,-000.33,-000.20,16.5,23.8,,00.0,0657.7,31.0
2021-04-21T04:16:00Z,00000200,01000000,0000.27,0000.17,0000.07,0000.63,0000.24,0000.11,-000.11,-000.01,0000.00,16.6,23.8,,00.0,0657.7,31.0
2021-04-21T04:17:00Z,00000200,01000000,0000.43,0000.26,-000.03,0000.46,0000.45,-000.07,0000.31,-000.10,0000.20,16.6,23.8,,00.0,0657.7,31.0
2021-04-21T04:18:00Z,00000200,01000000,0000.57,0000.30,-000.11,-000.02,0000.29,-000.14,0000.02,-000.13,-000.61,16.5,23.8,,00.0,0657.7,31.0
2021-04-21T04:19:00Z,00000200,01000000,0000.48,0000.33,-000.12,-000.06,0000.29,-000.09,-000.28,0000.33,0000.66,16.5,23.8,,00.0,0657.7,31.0
2021-04-21T04:20:00Z,00000200,01000000,0000.40,0000.33,0000.13,0000.16,0000.31,-000.02,0000.18,-000.12,-000.29,16.4,23.7,,00.0,0657.7,31.0
2021-04-21T04:21:00Z,00000200,01000000,0000.43,0000.18,0000.04,0000.01,0000.04,-000.04,0000.06,-000.30,0000.23,16.4,23.7,,00.0,0657.7,31.0
2021-04-21T04:22:00Z,00000200,01000000,0000.60,0000.08,0000.10,0000.48,0000.13,-000.01,0000.62,0000.90,0000.07,16.4,23.7,,00.0,0657.7,31.0
2021-04-21T04:23:00Z,00000200,01000000,0000.67,-000.08,-000.02,0000.11,0000.05,-000.21,-000.13,-000.13,0000.33,16.4,23.7,,00.0,0657.7,31.0
2021-04-21T04:24:00Z,00000200,01000000,0001.12,0000.25,0000.05,0000.17,0000.29,-000.27,-000.19,0000.11,0000.06,16.5,23.7,,00.0,0657.7,31.0
2021-04-21T04:25:00Z,00000200,01000000,0000.43,0000.25,-000.10,-000.44,0000.17,0000.05,0000.52,0000.19,0000.24,16.5,23.8,,00.0,0657.7,31.0
2021-04-21T04:26:00Z,00000200,01000000,0000.40,0000.13,0000.02,0000.41,0000.02,-000.05,0000.26,0000.58,0000.14,16.6,23.8,,00.0,0657.7,31.0
2021-04-21T04:27:00Z,00000200,01000000,0000.40,0000.15,-000.09,0000.24,0000.13,-000.20,0000.42,-000.14,0000.20,16.7,23.8,,00.0,0657.7,31.0
2021-04-21T04:28:00Z,00000200,01000000,0000.61,0000.35,-000.06,-000.31,0000.16,-000.05,-000.25,0000.15,-000.25,16.7,23.9,,00.0,0657.7,31.0
2021-04-21T04:29:00Z,00000200,01000000,0000.10,0000.22,0000.02,-000.04,0000.16,0000.18,0000.08,0000.05,0000.13,16.8,23.9,,00.0,0657.7,31.1
2021-04-21T04:30:00Z,00000200,01000000,0000.78,0000.11,0000.07,0000.09,0000.14,0000.06,-000.21,-000.41,-000.15,16.8,23.9,,00.0,0657.7,31.1
2021-04-21T04:31:00Z,00000200,01000000,0000.30,0000.13,0000.01,0000.18,0000.13,-000.13,0000.24,0000.37,0000.41,16.9,24.0,,00.0,0657.7,31.1
2021-04-21T04:32:00Z,00000200,01000000,0000.31,0000.14,-000.24,-000.31,0000.13,-000.10,-000.06,-000.03,-000.16,16.9,24.0,,00.0,0657.7,31.1
2021-04-21T04:33:00Z,00000200,01000000,0000.18,0000.30,0000.03,0000.36,0000.27,-000.19,0000.04,0000.40,-000.00,17.0,24.0,,00.0,0657.8,31.1
2021-04-21T04:34:00Z,00000200,01000000,0001.01,0000.01,-000.08,-000.24,0000.18,0000.21,0000.01,-000.09,0000.19,17.0,24.1,,00.0,0657.8,31.1
2021-04-21T04:35:00Z,00000200,01000000,0000.73,0000.24,0000.14,0000.20,0000.10,-000.15,0000.19,-000.11,-000.23,17.1,24.1,,00.0,0657.8,31.1
2021-04-21T04:36:00Z,00000200,01000000,0000.51,0000.16,-000.06,0000.31,0000.07,0000.06,-000.18,0000.20,-000.18,17.1,24.1,,00.0,0657.8,31.1
2021-04-21T04:37:00Z,00000200,01000000,0000.67,0000.01,0000.16,-000.23,0000.13,0000.09,-000.12,0000.10,-000.03,17.2,24.2,,00.0,0657.8,31.1
2021-04-21T04:38:00Z,00000200,01000000,-000.03,0000.00,0000.21,0000.13,0000.06,-000.04,-000.07,-000.65,-000.30,17.1,24.2,,00.0,0657.8,31.1
2021-04-21T04:39:00Z,00000200,01000000,0000.63,0000.08,-000.28,0000.27,0000.33,-000.04,0000.06,-000.02,0000.26,17.1,24.2,,00.0,0657.8,31.0
2021-04-21T04:40:00Z,00000200,01000000,-000.10,0000.32,-000.04,0000.11,0000.20,-000.11,-000.11,-000.02,-000.27,17.0,24.2,,00.0,0657.9,31.0
2021-04-21T04:41:00Z,00000200,01000000,0000.76,0000.28,0000.08,0000.32,-000.11,0000.05,0000.13,0000.14,-000.10,17.0,24.1,,00.0,0657.9,31.0
2021-04-21T04:42:00Z,00000200,01000000,0000.51,0000.45,-000.02,0000.29,0000.33,-000.09,0000.43,-000.06,0000.25,16.9,24.1,,00.0,0657.9,31.0
2021-04-21T04:43:00Z,00000200,01000000,0000.44,0000.23,0000.36,0000.35,0000.07,0000.02,-000.01,0000.07,0000.43,16.8,24.0,,00.0,0657.9,31.0
2021-04-21T04:44:00Z,00000200,01000000,0000.89,0000.08,0000.02,0000.60,0000.27,-000.09,0000.08,0000.06,-000.22,16.8,24.0,,00.0,0657.9,31.0
2021-04-21T04:45:00Z,00000200,01000000,0000.96,0000.26,0000.27,-000.02,0000.01,-000.14,-000.08,0000.30,0000.12,16.7,24.0,,00.0,0657.9,31.0
2021-04-21T04:46:00Z,00000200,01000000,0000.39,0000.12,0000.20,-000.22,0000.49,-000.09,0000.56,0000.36,0000.09,16.7,24.0,,00.0,0657.9,31.0
2021-04-21T04:47:00Z,00000200,01000000,0000.45,-000.20,0000.25,0000.30,0000.21,-000.15,-000.01,0000.01,-000.05,16.6,23.9,,00.0,0657.8,31.0
2021-04-21T04:48:00Z,00000200,01000000,0000.74,0000.45,0000.17,-000.10,0000.19,-000.14,-000.10,0000.07,0000.18,16.5,23.9,,00.0,0657.9,31.0
2021-04-21T04:49:00Z,00000200,01000000,0001.04,0000.19,0000.07,0000.27,0000.14,-000.02,0000.24,-000.16,0000.39,16.5,23.8,,00.0,0657.9,30.9
2021-04-21T04:50:00Z,00000200,01000000,0000.58,0000.02,0000.19,0000.09,0000.24,0000.06,0000.56,0000.81,-000.12,16.5,23.8,,00.0,0657.9,30.9
2021-04-21T04:51:00Z,00000200,01000000,0000.26,0000.12,0000.13,0000.29,0000.14,-000.00,-000.01,-000.00,0000.04,16.4,23.8,,00.0,0657.9,30.9
2021-04-21T04:52:00Z,00000200,01000000,0000.35,0000.35,-000.05,-000.08,0000.08,0000.14,0000.01,0000.08,0000.61,16.4,23.8,,00.0,0657.9,31.0
2021-04-21T04:53:00Z,00000200,01000000,0000.43,0000.24,0000.22,0000.26,0000.29,0000.31,0000.28,0000.19,-000.50,16.5,23.8,,00.0,0657.9,31.0
2021-04-21T04:54:00Z,00000200,01000000,0000.47,0000.22,0000.18,-000.11,0000.07,-000.11,-000.18,-000.08,0000.39,16.5,23.8,,00.0,0657.9,31.0
2021-04-21T04:55:00Z,00000200,01000000,0000.61,0000.46,-000.07,0000.19,0000.12,0000.00,0000.24,-000.14,0000.15,16.6,23.8,,00.0,0657.9,31.0
2021-04-21T04:56:00Z,00000200,01000000,-000.19,0000.31,-000.17,-000.23,-000.07,-000.02,0000.30,0000.61,-000.11,16.6,23.9,,00.0,0657.9,31.0
2021-04-21T04:57:00Z,00000200,41000000,,,,,,,0000.95,0000.98,0001.13,16.7,23.9,,00.0,0657.8,31.0
2021-04-21T04:58:00Z,00000200,61000000,,,,,,,-000.35,-000.58,-000.33,16.4,24.1,,00.0,0656.9,31.0
2021-04-21T04:59:00Z,00000200,21000000,,,,,,,-000.22,-000.20,-000.15,16.4,24.2,,00.0,0656.9,31.0
